Wind_Speed
6 4 4 3 3 4 3 5 2 2 2 1 4 4 7 2 4 4 7 10 24 25 19 19 23 22 23 23 19 16 19 18 18 17 16 16 15 15 14 14 14 13 14 14 14 14 14 14 14
5 6 3 2 4 2 4 4 5 4 4 7 6 3 2 2 2 5 15 21 26 24 25 24 24 25 25 22 17 18 19 18 17 17 16 15 14 14 13 13 12 12 13 12 13 13 13 13 15
4 5 1 4 3 5 5 5 5 1 7 2 4 4 3 3 2 16 11 29 30 27 28 28 26 26 24 19 17 19 20 19 17 16 16 14 13 13 12 12 11 12 14 12 12 12 13 14 15
2 4 3 3 6 5 6 3 2 6 2 3 3 5 2 6 11 12 28 30 31 29 27 26 25 24 22 19 20 21 20 18 17 15 14 13 12 12 12 11 10 11 12 12 12 12 13 13 16
3 3 1 2 5 4 4 2 6 6 5 4 4 4 2 2 8 20 33 27 28 29 26 24 22 22 22 22 20 20 18 17 16 15 13 12 11 11 11 11 12 12 12 12 12 12 13 13 16
2 3 1 4 4 5 4 5 3 5 4 5 5 7 4 4 21 31 25 26 27 29 27 23 21 20 22 24 23 22 18 18 17 14 12 12 11 11 10 11 11 11 10 11 11 12 13 14 16
3 3 5 3 5 4 5 3 5 6 6 6 8 7 0 5 21 30 26 26 28 28 27 24 21 20 21 23 23 21 19 19 16 14 13 12 12 12 12 12 11 10 10 10 10 12 12 14 16
3 3 4 5 5 5 4 4 2 6 5 3 7 6 5 7 26 24 25 25 29 29 27 25 23 21 21 22 22 21 20 18 17 15 13 13 13 12 12 12 11 9 10 10 13 11 12 12 15
4 1 5 6 6 4 2 3 2 2 6 1 6 5 5 30 31 25 24 24 27 28 28 26 24 22 22 23 22 22 20 18 16 15 14 14 14 13 12 12 11 10 10 12 12 11 10 11 14
4 3 7 4 3 4 1 1 0 1 3 2 3 5 25 30 30 28 26 26 26 25 27 29 27 25 24 24 22 21 20 18 17 16 16 15 14 13 15 13 10 9 9 10 10 11 11 13 15
4 6 3 3 5 2 2 3 2 5 3 5 8 12 20 27 25 24 25 28 29 26 26 29 29 27 26 25 24 22 20 19 17 17 17 15 15 14 15 13 10 9 9 8 9 11 10 11 10
7 5 4 4 3 3 3 2 3 4 4 1 6 17 18 19 21 27 28 30 32 29 26 27 27 30 28 27 26 23 22 20 19 19 17 16 15 13 13 10 9 9 10 9 10 11 10 10 11
8 12 7 11 6 6 2 6 5 7 8 3 9 18 22 20 24 23 25 26 27 29 27 31 29 34 31 29 27 25 24 22 21 20 18 16 14 13 11 9 8 10 10 12 12 13 12 11 11
4 10 13 12 13 6 5 4 5 7 3 5 12 17 18 21 26 23 27 29 31 30 30 34 32 35 33 31 30 28 25 22 22 21 19 16 14 12 12 11 9 9 12 13 14 13 13 13 10
6 10 14 14 17 8 3 15 15 8 4 8 8 9 13 14 23 29 32 33 35 33 30 37 37 35 34 33 30 29 27 25 24 22 20 18 16 12 12 11 10 10 13 15 16 16 10 11 11
4 5 9 5 11 7 9 33 12 12 8 9 9 8 10 14 22 23 27 28 30 31 34 38 39 36 35 34 32 30 28 26 26 24 21 20 18 17 14 14 12 11 16 17 17 16 15 12 11
5 12 13 8 12 11 17 26 10 7 9 10 9 9 12 11 13 22 25 28 29 32 36 39 38 38 37 35 32 31 29 28 27 25 23 23 20 19 17 15 12 14 18 19 18 18 17 16 15
6 8 9 10 3 14 22 22 9 8 9 9 8 10 10 11 18 23 27 29 31 33 38 41 40 38 37 35 33 31 30 30 29 27 27 24 23 20 20 17 15 16 20 21 19 20 19 19 19
5 7 9 14 4 5 18 22 13 14 5 7 8 9 11 14 14 20 26 29 30 33 37 39 39 39 38 37 37 34 35 33 32 30 28 28 26 23 23 19 17 19 23 23 22 22 22 22 20
11 13 18 12 8 9 16 18 19 16 17 8 10 10 13 13 9 16 24 29 31 34 38 39 41 41 41 40 38 29 33 35 34 31 30 30 29 26 26 23 21 21 24 25 26 27 26 22 24
16 16 16 14 11 10 7 19 15 21 23 16 16 11 12 14 14 12 17 30 29 33 39 40 41 42 43 39 35 30 27 27 32 32 32 32 30 28 27 25 23 23 26 29 29 29 28 23 28
17 18 17 12 4 12 6 10 16 18 21 24 21 13 13 12 13 14 18 24 34 40 37 39 41 43 43 41 39 37 33 25 35 38 36 34 32 30 28 26 25 25 27 31 32 31 30 24 28
17 10 12 9 16 6 23 7 6 17 20 22 24 22 16 16 16 16 17 30 36 34 36 37 38 40 43 43 42 42 33 31 30 37 36 35 34 32 30 28 27 27 28 30 32 33 34 29 26
2 12 8 9 5 10 25 8 8 11 24 20 18 22 20 15 16 16 27 31 29 32 33 37 39 41 43 45 45 43 38 32 34 33 37 38 37 35 32 30 29 28 29 30 31 34 34 33 28
14 7 2 4 7 12 10 11 24 10 6 16 21 22 21 18 18 17 18 19 28 32 36 36 38 39 40 43 43 43 42 40 41 41 39 40 41 39 37 33 31 30 30 29 30 31 34 33 31
16 12 4 7 5 13 12 10 7 18 10 5 4 11 15 16 16 18 20 24 29 34 38 39 39 39 40 43 43 43 44 42 44 44 42 42 45 44 39 35 33 32 30 30 29 30 32 33 31
6 10 18 6 2 4 9 9 2 8 8 8 7 6 7 12 14 18 17 24 28 32 36 41 39 39 39 41 40 40 42 41 40 42 44 43 42 42 40 37 35 33 32 31 29 29 30 31 30
6 10 7 9 2 10 4 5 1 10 10 8 8 9 7 6 7 11 14 19 27 33 38 38 41 42 42 39 39 40 39 41 40 41 44 43 42 39 37 38 37 36 34 33 32 29 28 29 29
9 6 6 5 8 4 4 1 4 6 7 8 6 8 9 10 6 6 8 17 24 25 27 32 34 35 36 37 39 38 38 40 41 43 43 44 42 39 38 38 36 38 37 35 34 30 27 27 26
4 10 13 4 6 8 3 2 5 7 6 5 4 7 6 5 6 5 5 1 8 20 27 28 29 29 34 34 33 37 35 39 41 44 44 44 44 41 41 39 38 38 39 38 37 34 33 30 30
Wind_Direction
307 306 290 34 55 69 247 248 220 248 198 258 105 150 177 104 165 198 148 155 156 152 157 161 162 158 149 149 143 142 131 130 128 124 114 109 106 102 98 92 91 84 82 83 85 86 76 78 79
313 312 294 86 111 133 255 251 220 222 135 142 93 66 77 135 85 122 138 150 151 147 146 148 155 152 151 149 149 138 136 134 131 129 121 110 109 104 96 97 92 86 88 86 89 86 81 79 88
309 304 87 132 155 193 209 213 223 125 152 109 101 56 135 185 58 155 148 153 151 147 147 147 150 152 153 154 146 141 143 139 136 136 121 115 113 106 102 101 93 89 82 87 86 87 79 84 89
62 343 16 125 209 248 203 216 197 125 220 75 109 85 24 281 162 174 155 153 156 152 152 153 156 158 158 151 138 137 139 144 143 132 125 120 119 113 106 100 95 92 93 89 89 89 86 90 86
78 73 256 219 224 242 233 261 169 171 160 145 145 161 25 22 149 153 150 156 156 158 158 157 158 161 161 153 151 152 150 145 142 136 131 127 119 114 108 107 110 106 98 94 93 92 93 94 87
66 107 147 215 226 232 254 199 199 190 156 151 99 121 179 161 149 152 153 159 159 161 159 158 160 162 161 160 158 156 150 151 143 142 137 129 122 119 116 112 111 107 102 94 96 96 94 96 93
148 121 202 221 233 255 214 155 194 189 167 203 140 129 133 186 163 155 156 164 167 165 162 160 162 162 162 165 163 161 158 151 149 149 140 138 137 133 120 117 111 105 101 98 97 103 101 99 101
119 131 212 214 208 263 235 162 293 169 201 82 150 177 197 198 162 154 157 167 167 167 166 165 165 164 164 163 164 167 164 162 162 152 151 147 137 129 124 118 111 104 100 108 99 98 102 106 103
131 237 220 208 187 252 309 168 55 355 127 233 173 144 155 160 160 153 158 165 166 171 172 171 169 169 168 168 170 169 169 169 160 156 153 146 138 132 125 117 108 105 113 111 101 93 95 112 112
179 196 226 220 218 231 243 256 71 357 132 178 121 48 133 148 160 165 171 174 170 173 175 177 176 176 173 172 172 170 168 168 165 160 155 149 145 137 134 121 115 114 119 109 98 93 100 115 112
199 230 200 276 257 266 235 266 290 125 243 209 202 150 150 155 168 175 178 181 180 175 177 178 180 181 179 177 175 175 172 171 170 166 161 158 154 149 149 149 152 142 149 135 119 108 106 111 113
255 225 208 235 259 234 228 276 254 175 208 28 197 158 156 169 177 179 181 181 181 180 183 180 183 184 185 181 181 180 178 177 175 172 169 165 164 164 167 169 179 175 180 163 145 133 131 122 106
270 280 249 250 241 237 232 242 254 253 237 253 145 161 172 183 184 182 179 178 184 184 184 184 184 188 189 187 187 186 186 185 183 183 182 182 185 186 185 183 166 178 185 179 158 142 135 124 123
351 309 287 261 247 240 207 248 170 254 220 114 164 179 181 183 185 180 184 183 187 185 187 189 189 193 192 193 193 192 193 192 191 191 192 192 195 199 202 189 183 180 181 178 161 148 136 130 138
287 296 291 255 241 237 137 270 221 237 238 143 191 192 189 189 188 192 189 190 186 190 189 194 195 197 197 198 197 198 198 199 199 197 198 199 200 201 189 201 188 180 177 169 155 143 137 145 144
240 235 255 238 229 235 167 253 237 223 189 214 187 190 192 195 200 195 195 193 191 190 189 194 197 202 201 203 201 202 202 203 201 200 203 203 203 199 202 205 195 185 177 173 163 152 148 151 154
252 263 242 319 212 223 206 252 241 212 190 219 187 196 204 194 196 201 193 193 192 187 191 196 198 203 204 207 207 208 207 207 207 206 208 206 206 209 211 209 203 194 181 175 169 159 163 160 152
232 249 256 233 315 224 234 248 241 213 190 221 213 187 205 203 210 194 191 191 192 194 196 198 199 205 206 209 209 213 215 213 211 212 209 209 210 212 208 207 210 195 183 178 175 169 167 165 159
288 291 278 257 227 14 262 253 227 242 224 227 217 194 197 211 209 191 193 192 191 197 194 198 196 204 205 207 206 211 213 212 214 215 212 212 211 212 209 212 208 198 191 187 181 170 164 157 163
242 254 268 285 289 267 267 273 251 227 237 209 219 213 198 217 178 192 189 192 194 195 198 200 201 204 207 207 208 208 212 215 216 215 214 213 214 215 214 217 214 205 198 192 188 181 166 171 175
224 234 247 250 302 283 259 276 271 235 229 216 219 214 208 201 190 193 186 195 194 199 199 200 202 205 209 208 206 207 214 216 217 217 216 214 216 216 218 220 219 212 205 201 198 194 190 179 187
236 218 233 238 268 250 73 285 234 228 231 227 223 207 201 199 197 196 197 195 199 206 200 202 203 205 208 206 206 203 204 204 216 216 216 215 216 217 220 222 220 217 213 210 207 204 205 200 191
235 209 222 215 235 274 267 281 241 206 223 224 226 220 212 197 193 194 200 204 207 203 202 201 202 204 208 206 207 207 207 213 218 217 218 216 216 219 222 222 220 218 217 216 215 211 210 209 207
113 249 232 232 203 243 243 222 283 218 224 222 221 220 219 203 196 198 203 210 208 203 200 199 200 202 205 207 207 209 209 210 213 213 216 215 216 218 221 221 223 223 221 219 219 220 217 217 220
202 221 203 212 204 234 219 220 233 249 247 206 217 218 213 209 199 198 200 202 204 198 200 200 200 202 201 205 207 208 211 212 218 218 215 216 216 217 220 221 221 222 223 223 224 224 224 222 223
194 180 219 192 205 244 215 258 249 231 245 192 231 212 213 215 207 209 204 201 200 199 198 200 202 202 203 204 208 208 212 214 220 223 221 223 222 222 223 225 224 225 226 226 223 227 227 223 226
180 200 221 314 278 282 181 209 158 17 18 10 4 324 257 217 205 209 210 206 197 199 199 200 202 206 204 205 206 208 213 213 218 222 228 230 229 229 228 229 228 227 226 226 224 224 226 227 225
160 164 170 213 210 241 84 114 306 345 334 338 343 311 286 309 258 219 212 204 201 200 201 200 201 204 204 204 206 208 212 215 218 224 228 230 232 232 232 230 229 228 227 224 222 224 222 224 228
188 222 220 152 245 312 124 48 347 304 309 308 327 308 353 338 308 261 225 209 202 201 201 203 201 205 205 204 205 206 209 215 217 225 231 234 236 234 233 232 231 229 226 222 220 218 219 224 224
180 191 196 175 208 201 223 15 357 336 338 317 342 4 11 2 357 3 19 318 206 194 193 196 201 205 206 208 206 206 206 212 217 224 233 236 237 237 234 233 231 231 227 223 219 215 212 211 218
Height
794 793 794 792 815 818 821 811 797 796 794 791 791 797 799 800 805 820 803 806 809 812 817 821 825 829 832 834 837 840 843 845 847 849 850 852 852 853 854 855 856 856 857 857 857 857 857 857 857
794 795 795 800 820 827 821 804 799 790 790 791 790 793 797 802 801 804 806 808 811 814 817 822 826 829 833 836 838 841 845 847 849 851 852 854 855 855 856 857 858 858 858 860 859 859 859 859 859
794 796 800 807 821 822 817 797 791 786 791 787 793 795 798 801 801 802 803 808 813 816 819 823 828 830 833 837 839 842 845 848 850 851 853 855 856 857 858 859 860 860 860 862 862 862 861 861 861
793 797 801 812 815 804 798 787 783 791 788 786 792 802 799 799 798 801 804 809 813 817 821 825 829 832 834 838 840 843 846 849 851 853 855 856 857 858 860 861 861 862 863 864 864 864 863 864 863
794 802 813 814 806 795 792 785 785 789 787 790 790 801 804 800 799 801 805 811 815 819 822 826 830 833 835 838 841 844 847 849 852 854 856 857 859 860 861 861 862 863 864 864 865 865 866 866 866
801 805 818 818 805 791 785 781 783 784 786 791 793 800 804 801 800 804 808 812 816 820 823 827 830 834 836 839 841 844 846 849 852 855 857 858 860 862 862 863 864 865 866 866 867 867 868 868 868
803 809 812 806 802 793 784 777 783 782 786 787 787 801 804 803 803 805 809 813 816 820 824 826 830 834 837 840 842 845 847 850 853 855 857 859 860 862 863 865 865 866 867 868 868 869 870 870 871
803 807 806 804 802 797 779 777 775 778 783 780 780 796 802 798 802 807 810 814 818 821 824 827 830 833 837 840 843 845 847 850 853 855 857 859 861 863 864 866 867 868 869 869 870 871 871 872 873
798 809 813 802 797 791 780 778 776 776 781 779 779 782 783 792 800 806 810 814 817 821 824 827 830 833 836 840 843 845 848 851 853 855 858 860 861 864 866 867 868 869 870 870 871 872 873 874 875
797 807 805 791 786 785 782 780 778 780 782 782 781 783 784 792 799 801 805 809 813 817 822 826 829 832 836 839 843 845 847 851 853 855 858 860 862 864 866 868 870 871 871 872 873 873 874 876 876
791 798 793 788 785 781 781 781 779 778 784 777 777 783 786 791 797 801 803 806 810 815 819 823 827 831 834 837 841 844 847 850 853 855 858 860 862 864 867 868 869 871 872 873 874 875 876 877 878
796 790 789 785 783 782 782 780 779 776 772 771 771 777 783 788 791 793 798 801 807 813 818 821 825 829 833 836 839 843 846 849 852 855 858 860 862 864 866 868 870 871 872 873 874 876 877 878 879
792 789 786 782 781 782 780 782 779 775 768 767 770 774 777 782 786 793 798 802 807 810 815 818 822 826 830 834 838 842 845 847 851 854 857 859 861 863 866 868 869 871 871 873 874 876 877 879 881
799 797 790 781 781 780 782 780 781 770 767 766 770 772 774 777 782 790 793 796 801 806 810 815 819 823 827 831 835 839 843 846 849 852 856 858 861 863 865 867 869 870 872 873 875 877 879 880 882
794 797 785 777 778 782 781 781 773 769 768 766 772 773 775 777 783 780 785 789 793 800 807 811 816 820 825 829 833 837 840 844 847 850 854 856 859 862 864 866 868 870 871 873 875 877 880 882 883
800 794 788 774 779 781 785 760 762 764 769 766 766 771 774 774 777 783 786 790 794 799 802 808 812 817 822 826 830 834 838 841 845 848 851 854 858 860 862 864 866 868 870 873 875 877 879 882 884
806 790 785 782 772 779 778 755 760 764 766 766 763 767 770 772 776 778 783 787 792 794 800 805 809 813 818 823 828 832 835 839 842 846 849 852 855 858 860 862 865 866 868 872 874 876 878 882 884
807 804 791 785 776 775 771 764 761 761 763 763 762 761 767 769 767 772 778 783 788 792 797 800 804 810 815 821 826 830 833 836 840 842 845 849 852 855 858 860 862 865 868 870 873 875 877 880 883
803 806 800 779 778 790 770 762 766 759 760 761 761 761 762 764 762 768 774 779 783 790 792 796 800 805 811 816 819 824 826 830 834 838 841 845 849 851 855 857 860 862 865 868 871 875 877 880 883
804 806 802 790 780 784 773 766 757 755 752 757 756 757 755 757 762 764 768 773 776 782 786 791 794 799 805 809 814 819 823 826 830 833 837 841 844 848 851 853 856 859 863 866 867 869 873 877 880
798 803 797 796 787 781 784 758 753 746 741 743 743 745 747 747 754 759 763 764 770 775 777 783 788 793 799 806 811 816 821 824 827 829 832 836 840 843 847 850 852 855 858 861 864 866 868 871 877
795 781 786 789 798 791 777 753 740 745 739 735 734 741 741 742 744 750 755 759 759 761 771 777 782 786 793 799 803 807 810 815 817 820 826 830 835 839 842 845 848 851 854 856 858 861 865 868 871
777 780 784 789 791 793 781 793 739 732 733 725 723 727 731 731 734 741 746 747 749 759 764 770 777 781 786 791 795 800 805 809 812 816 820 825 830 833 837 840 843 846 849 852 855 856 859 863 866
771 782 781 784 788 788 760 786 741 726 707 708 712 715 719 726 725 729 734 739 744 752 759 762 767 771 778 783 787 792 797 802 805 810 814 819 823 827 830 834 838 841 844 847 850 851 855 857 861
772 783 815 789 776 761 738 759 741 709 704 698 701 703 705 713 716 719 726 732 737 742 748 754 759 763 768 775 780 783 789 794 797 801 806 810 815 818 822 827 831 835 839 842 845 847 850 852 856
767 772 767 762 758 732 742 747 723 704 700 695 694 697 700 703 706 707 712 719 725 731 735 743 748 754 760 764 770 775 781 786 789 794 799 802 806 810 816 821 825 829 833 836 839 842 844 847 850
763 767 753 762 746 740 721 725 701 709 707 708 707 707 702 697 699 700 704 709 714 722 726 732 739 745 750 755 763 768 773 779 781 787 792 797 800 805 810 815 819 823 826 830 833 835 838 843 845
747 745 761 762 752 717 702 713 720 719 716 716 715 715 706 697 696 697 699 703 706 711 716 724 729 733 740 749 755 759 764 771 776 781 785 790 794 800 804 807 810 814 818 822 825 828 832 836 840
748 753 739 739 745 721 707 729 727 733 730 727 722 719 701 701 700 698 697 698 702 708 715 720 725 731 736 741 745 752 757 763 769 773 778 782 788 792 796 800 804 806 809 813 817 820 825 831 835
725 726 730 741 725 728 722 745 734 735 730 729 725 717 712 713 711 707 704 701 703 705 709 714 721 728 730 736 742 745 751 755 761 765 770 775 778 782 786 792 796 799 801 803 809 812 814 819 827